TimeMDT,TemperatureF,Dew PointF,Humidity,Sea Level PressureIn,VisibilityMPH,Wind Direction,Wind SpeedMPH,Gust SpeedMPH,PrecipitationIn,Events,Conditions,WindDirDegrees,DateUTC
12:12 AM,38.5,25.2,59,30.26,10.0,South,9.2,19.6,N/A,,Overcast,190,2012-10-05 06:12:00
12:32 AM,38.5,25.3,59,30.26,10.0,South,9.2,-,N/A,,Overcast,190,2012-10-05 06:32:00
12:52 AM,38.1,26.4,63,30.25,10.0,South,8.1,16.1,N/A,,Overcast,190,2012-10-05 06:52:00
1:12 AM,37.4,26.6,65,30.24,10.0,South,12.7,17.3,N/A,Snow,Light Snow,190,2012-10-05 07:12:00
1:32 AM,35.6,28.4,75,30.18,10.0,SSE,18.4,-,N/A,Rain,Rain,160,2012-10-05 07:32:00
1:52 AM,35.8,27.0,70,30.20,10.0,South,15.0,-,N/A,,Overcast,180,2012-10-05 07:52:00
2:12 AM,35.2,26.4,70,30.19,10.0,SSE,15.0,21.9,N/A,,Overcast,160,2012-10-05 08:12:00
2:32 AM,34.7,25.7,70,30.20,10.0,South,17.3,24.2,N/A,,Overcast,170,2012-10-05 08:32:00
2:52 AM,33.6,27.1,77,30.16,10.0,SSE,16.1,24.2,N/A,,Drizzle,160,2012-10-05 08:52:00
3:12 AM,32.9,27.5,81,30.17,10.0,South,8.1,16.1,N/A,,Mostly Cloudy,170,2012-10-05 09:12:00
3:32 AM,32.9,27.0,79,30.18,10.0,South,11.5,16.1,N/A,,Mostly Cloudy,180,2012-10-05 09:32:00
3:52 AM,32.4,26.4,79,30.16,10.0,South,10.4,-,N/A,,Mostly Cloudy,190,2012-10-05 09:52:00
4:12 AM,32.0,26.6,80,30.16,10.0,South,9.2,-,N/A,,Mostly Cloudy,190,2012-10-05 10:12:00
4:32 AM,32.0,27.1,82,30.18,10.0,SSW,3.5,-,N/A,,Mostly Cloudy,210,2012-10-05 10:32:00
4:52 AM,32.0,27.1,82,30.18,10.0,South,5.8,-,N/A,,Mostly Cloudy,180,2012-10-05 10:52:00
5:12 AM,31.6,27.0,83,30.20,10.0,Calm,Calm,-,N/A,,Mostly Cloudy,0,2012-10-05 11:12:00
5:32 AM,31.8,27.0,82,30.17,10.0,SE,3.5,-,N/A,,Mostly Cloudy,140,2012-10-05 11:32:00
5:52 AM,31.3,27.0,84,30.18,10.0,South,4.6,-,N/A,,Mostly Cloudy,170,2012-10-05 11:52:00
6:12 AM,28.8,25.7,88,30.19,10.0,Calm,Calm,-,N/A,,Scattered Clouds,0,2012-10-05 12:12:00
6:32 AM,32.0,28.0,85,30.21,10.0,North,4.6,-,N/A,,Mostly Cloudy,350,2012-10-05 12:32:00
6:52 AM,32.2,27.9,84,30.22,10.0,Calm,Calm,-,N/A,,Overcast,0,2012-10-05 12:52:00
7:12 AM,32.4,28.4,85,30.19,10.0,East,5.8,-,N/A,,Overcast,80,2012-10-05 13:12:00
7:32 AM,32.0,27.9,85,30.19,10.0,SE,5.8,-,N/A,,Overcast,140,2012-10-05 13:32:00
7:52 AM,32.0,27.9,85,30.18,10.0,SE,8.1,-,N/A,,Overcast,130,2012-10-05 13:52:00
8:12 AM,32.2,27.7,83,30.19,10.0,SE,6.9,-,N/A,,Overcast,130,2012-10-05 14:12:00
8:32 AM,32.4,27.3,82,30.19,10.0,SSE,9.2,-,N/A,,Overcast,150,2012-10-05 14:32:00
8:52 AM,33.1,27.5,80,30.20,10.0,SSE,10.4,-,N/A,,Overcast,150,2012-10-05 14:52:00
9:12 AM,33.6,27.7,79,30.21,10.0,SSE,8.1,-,N/A,,Overcast,150,2012-10-05 15:12:00
9:32 AM,34.3,28.0,78,30.21,10.0,SSE,8.1,-,N/A,,Overcast,150,2012-10-05 15:32:00
9:52 AM,35.1,28.2,76,30.21,10.0,SSE,10.4,-,N/A,,Overcast,150,2012-10-05 15:52:00
10:12 AM,35.4,28.4,76,30.21,10.0,SSE,6.9,16.1,N/A,,Overcast,150,2012-10-05 16:12:00
10:32 AM,35.6,28.8,76,30.21,10.0,SSE,6.9,-,N/A,,Overcast,150,2012-10-05 16:32:00
10:52 AM,35.8,28.8,76,30.21,10.0,SE,6.9,-,N/A,,Overcast,140,2012-10-05 16:52:00
11:12 AM,36.0,28.9,76,30.21,10.0,SSE,5.8,17.3,N/A,,Overcast,150,2012-10-05 17:12:00
11:32 AM,36.0,29.1,76,30.21,10.0,ESE,5.8,-,N/A,,Overcast,120,2012-10-05 17:32:00
11:52 AM,36.9,29.3,74,30.21,10.0,SSE,6.9,-,N/A,,Overcast,150,2012-10-05 17:52:00
12:32 PM,37.4,29.5,73,30.21,10.0,Calm,Calm,-,N/A,,Overcast,0,2012-10-05 18:32:00
12:52 PM,38.1,29.7,72,30.20,10.0,South,3.5,-,N/A,,Overcast,170,2012-10-05 18:52:00
1:12 PM,38.3,29.8,72,30.20,10.0,ESE,3.5,-,N/A,,Overcast,120,2012-10-05 19:12:00
1:32 PM,38.3,29.8,72,30.20,10.0,SE,3.5,-,N/A,,Overcast,140,2012-10-05 19:32:00
1:52 PM,39.4,30.0,69,30.19,10.0,NNE,3.5,-,N/A,,Overcast,30,2012-10-05 19:52:00
2:12 PM,39.4,30.2,70,30.19,10.0,Calm,Calm,-,N/A,,Overcast,0,2012-10-05 20:12:00
2:32 PM,39.7,30.2,69,30.19,10.0,SE,6.9,-,N/A,,Overcast,130,2012-10-05 20:32:00
2:52 PM,39.0,30.0,70,30.20,10.0,SE,4.6,-,N/A,,Overcast,130,2012-10-05 20:52:00
3:12 PM,37.6,29.7,73,30.21,10.0,NE,4.6,-,N/A,,Overcast,50,2012-10-05 21:12:00
3:32 PM,36.7,29.8,76,30.21,10.0,Calm,Calm,-,N/A,,Overcast,0,2012-10-05 21:32:00
3:52 PM,36.7,30.9,80,30.21,10.0,North,8.1,-,N/A,,Overcast,10,2012-10-05 21:52:00
4:12 PM,35.8,30.6,81,30.22,10.0,North,10.4,-,N/A,,Overcast,350,2012-10-05 22:12:00
4:32 PM,35.4,30.7,83,30.23,10.0,North,10.4,-,N/A,,Overcast,350,2012-10-05 22:32:00
4:52 PM,34.7,30.9,86,30.23,10.0,NNE,6.9,-,N/A,,Overcast,20,2012-10-05 22:52:00
5:12 PM,34.7,30.9,86,30.24,10.0,North,8.1,-,N/A,,Overcast,360,2012-10-05 23:12:00
5:32 PM,34.3,30.6,86,30.24,10.0,North,10.4,-,N/A,,Overcast,10,2012-10-05 23:32:00
5:52 PM,33.8,30.7,89,30.24,10.0,North,9.2,-,N/A,,Overcast,350,2012-10-05 23:52:00
6:12 PM,33.4,31.1,91,30.25,10.0,North,4.6,-,N/A,,Light Drizzle,350,2012-10-06 00:12:00
6:32 PM,32.9,31.3,94,30.25,7.0,North,5.8,-,N/A,,Light Drizzle,350,2012-10-06 00:32:00
6:52 PM,32.9,31.6,95,30.26,4.0,Calm,Calm,-,N/A,,Drizzle,0,2012-10-06 00:52:00
7:12 PM,32.9,32.0,96,30.26,2.0,Calm,Calm,-,N/A,,Overcast,0,2012-10-06 01:12:00
7:32 PM,32.0,31.3,97,30.26,4.0,SE,6.9,-,N/A,,Overcast,140,2012-10-06 01:32:00
7:52 PM,32.0,31.5,98,30.26,4.0,SE,3.5,-,N/A,,Overcast,140,2012-10-06 01:52:00
8:12 PM,32.0,31.5,98,30.26,10.0,Calm,Calm,-,N/A,,Overcast,0,2012-10-06 02:12:00
8:32 PM,32.0,31.6,99,30.28,10.0,SSE,5.8,-,N/A,,Overcast,160,2012-10-06 02:32:00
8:52 PM,32.0,31.5,98,30.27,5.0,SSE,5.8,-,N/A,,Overcast,160,2012-10-06 02:52:00
9:32 PM,32.0,31.6,99,30.28,3.0,SSE,4.6,-,N/A,,Overcast,160,2012-10-06 03:32:00
9:52 PM,32.0,31.6,99,30.27,1.5,South,8.1,-,N/A,,Overcast,170,2012-10-06 03:52:00
10:12 PM,31.6,31.1,98,30.26,2.0,SSE,9.2,-,N/A,,Overcast,160,2012-10-06 04:12:00
10:32 PM,31.1,30.9,99,30.26,2.5,SSE,6.9,-,N/A,,Overcast,160,2012-10-06 04:32:00
10:52 PM,31.1,30.7,99,30.25,2.5,SSE,6.9,-,N/A,,Overcast,160,2012-10-06 04:52:00
11:12 PM,30.6,30.2,99,30.24,3.0,SSE,9.2,-,N/A,,Overcast,160,2012-10-06 05:12:00
11:32 PM,30.6,30.2,99,30.24,3.0,South,8.1,-,N/A,,Overcast,180,2012-10-06 05:32:00
11:52 PM,30.6,30.2,99,30.23,1.0,SSE,8.1,-,N/A,,Overcast,160,2012-10-06 05:52:00